1277942428571,16.4400
1277942488571,16.4848
1277942548571,16.5074
1277942608571,16.4163
1277942668571,16.5359
1277942728571,16.4838
1277942788571,16.4658
1277942848571,16.4606
1277942908571,16.5167
1277942968571,16.4701
1277943028571,16.4691
1277943088571,16.4921
1277943148571,16.4852
1277943208571,16.4414
1277943268571,16.4983
1277943328571,16.4999
1277943388571,16.5613
1277943448571,16.4312
1277943508571,16.4229
1277943568571,16.4373
1277943628571,16.4868
1277943688571,16.4400
1277943748571,16.4860
1277943808571,16.3898
1277943868571,16.3870
1277943928571,16.4717
1277943988571,16.4420
1277944048571,16.4001
1277944108571,16.4317
1277944168571,16.4373
1277944228571,16.4384
1277944288571,16.3603
1277944348571,16.4197
1277944408571,16.4678
1277944468571,16.4650
1277944528571,16.4302
1277944588571,16.5215
1277944648571,16.4461
1277944708571,16.4250
1277944768571,16.4667
1277944828571,16.4740
1277944888571,16.4407
1277944948571,16.4290
1277945008571,16.4673
1277945068571,16.4646
1277945128571,16.4760
1277945188571,16.4535
1277945248571,16.4816
1277945308571,16.3930
1277945368571,16.4348
1277945428571,16.4158
1277945488571,16.4281
1277945548571,16.3901
1277945608571,16.4361
1277945668571,16.4028
1277945728571,16.4910
1277945788571,16.4680
1277945848571,16.4098
1277945908571,16.4380
1277945968571,16.4547
1277946028581,16.4366
1277946088581,16.4326
1277946148581,16.4427
1277946208581,16.3744
1277946268581,16.3827
1277946328581,16.4111
1277946388581,16.4422
1277946448581,16.3544
1277946508581,16.4252
1277946568581,16.3920
1277946628581,16.4042
1277946688581,16.3966
1277946748581,16.4651
1277946808581,16.4141
1277946868581,16.4091
1277946928581,16.4337
1277946988581,16.4465
1277947048581,16.4481
1277947108581,16.4021
1277947168581,16.3923
1277947228581,16.4604
1277947288581,16.4152
1277947348581,16.4041
1277947408581,16.3874
1277947468581,16.3995
1277947528581,16.4121
1277947588581,16.4137
1277947648581,16.3359
1277947708581,16.3833
1277947768581,16.3384
1277947828581,16.3996
1277947888581,16.4066
1277947948581,16.3774
1277948008581,16.4096
1277948068581,16.4295
1277948128581,16.3660
1277948188581,16.4254
1277948248581,16.4816
1277948308581,16.3675
1277948368581,16.3694
1277948428581,16.2776
1277948488581,16.3699
1277948548581,16.3683
1277948608581,16.4085
1277948668581,16.3859
1277948728581,16.4255
1277948788581,16.4035
1277948848581,16.2997
1277948908581,16.3565
1277948968581,16.3836
1277949028581,16.4067
1277949088581,16.4004
1277949148581,16.3672
1277949208581,16.3331
1277949268581,16.3680
1277949328581,16.3556
1277949388581,16.2905
1277949448581,16.3708
1277949508581,16.4188
1277949568581,16.4366
1277949628590,16.4326
1277949688590,16.3928
1277949748590,16.3735
1277949808590,16.3919
1277949868590,16.3314
1277949928590,16.3778
1277949988590,16.3286
1277950048590,16.3008
1277950108590,16.3474
1277950168590,16.3185
1277950228590,16.2846
1277950288590,16.3504
1277950348590,16.3375
1277950408590,16.3408
1277950468590,16.4068
1277950528590,16.3990
1277950588590,16.3272
1277950648590,16.3740
1277950708590,16.3264
1277950768590,16.3602
1277950828590,16.4136
1277950888590,16.3249
1277950948590,16.3457
1277951008590,16.3256
1277951068590,16.2988
1277951128590,16.3425
1277951188590,16.3565
1277951248590,16.3316
1277951308590,16.3851
1277951368590,16.3647
1277951428590,16.2645
1277951488590,16.3969
1277951548590,16.3527
1277951608590,16.3110
1277951668590,16.3155
1277951728590,16.3364
1277951788590,16.3589
1277951848590,16.3137
1277951908590,16.3236
1277951968590,16.3204
1277952028590,16.3145
1277952088590,16.2753
1277952148590,16.2958
1277952208590,16.3785
1277952268590,16.2834
1277952328590,16.2998
1277952388590,16.3024
1277952448590,16.2628
1277952508590,16.3157
1277952568590,16.2537
1277952628590,16.3091
1277952688590,16.3148
1277952748590,16.2672
1277952808590,16.2933
1277952868590,16.2474
1277952928590,16.3032
1277952988590,16.3198
1277953048590,16.3658
1277953108590,16.2843
1277953168590,16.3612
1277953228599,16.3198
1277953288599,16.2974
1277953348599,16.3470
1277953408599,16.2937
1277953468599,16.2805
1277953528599,16.3507
1277953588599,16.3461
1277953648599,16.3319
1277953708599,16.3073
1277953768599,16.3194
1277953828599,16.2705
1277953888599,16.2904
1277953948599,16.3483
1277954008599,16.3108
1277954068599,16.3500
1277954128599,16.2558
1277954188599,16.3344
1277954248599,16.3095
1277954308599,16.3263
1277954368599,16.3309
1277954428599,16.3162
1277954488599,16.3344
1277954548599,16.3322
1277954608599,16.2974
1277954668599,16.3318
1277954728599,16.3542
1277954788599,16.3226
1277954848599,16.3342
1277954908599,16.3313
1277954968599,16.3365
1277955028599,16.2558
1277955088599,16.3252
1277955148599,16.3158
1277955208599,16.3272
1277955268599,16.3476
1277955328599,16.3288
1277955388599,16.2563
1277955448599,16.3472
1277955508599,16.3148
1277955568599,16.3684
1277955628599,16.2994
1277955688599,16.3659
1277955748599,16.3375
1277955808599,16.3560
1277955868599,16.3750
1277955928599,16.3688
1277955988599,16.3293
1277956048599,16.3484
1277956108599,16.3438
1277956168599,16.2423
1277956228599,16.3382
1277956288599,16.3599
1277956348599,16.3117
1277956408599,16.3956
1277956468599,16.3585
1277956528599,16.3848
1277956588599,16.3506
1277956648599,16.3388
1277956708599,16.3508
1277956768599,16.3326
1277956828607,16.2893
1277956888607,16.3573
1277956948607,16.3571
1277957008607,16.4206
1277957068607,16.3345
1277957128607,16.3702
1277957188607,16.3785
1277957248607,16.2870
1277957308607,16.3579
1277957368607,16.3051
1277957428607,16.3840
1277957488607,16.2945
1277957548607,16.3606
1277957608607,16.3841
1277957668607,16.3410
1277957728607,16.3411
1277957788607,16.3240
1277957848607,16.3338
1277957908607,16.3719
1277957968607,16.3707
1277958028607,16.3365
1277958088607,16.3797
1277958148607,16.3160
1277958208607,16.3791
1277958268607,16.3419
1277958328607,16.3527
1277958388607,16.3055
1277958448607,16.3700
1277958508607,16.3542
1277958568607,16.3273
1277958628607,16.3321
1277958688607,16.4007
1277958748607,16.3646
1277958808607,16.3230
1277958868607,16.3454
1277958928607,16.3457
1277958988607,16.3470
1277959048607,16.3666
1277959108607,16.3095
1277959168607,16.2729
1277959228607,16.2887
1277959288607,16.3414
1277959348607,16.2892
1277959408607,16.2928
1277959468607,16.2839
1277959528607,16.3574
1277959588607,16.3453
1277959648607,16.3196
1277959708607,16.3700
1277959768607,16.4131
1277959828607,16.3270
1277959888607,16.3167
1277959948607,16.3507
1277960008607,16.3270
1277960068607,16.3741
1277960128607,16.3212
1277960188607,16.3362
1277960248607,16.3250
1277960308607,16.3347
1277960368607,16.3215
1277960428616,16.4084
1277960488616,16.4111
1277960548616,16.3480
1277960608616,16.3364
1277960668616,16.3083
1277960728616,16.3167
1277960788616,16.3286
1277960848616,16.4017
1277960908616,16.3426
1277960968616,16.3800
1277961028616,16.3338
1277961088616,16.3657
1277961148616,16.3969
1277961208616,16.3874
1277961268616,16.3647
1277961328616,16.4645
1277961388616,16.3497
1277961448616,16.3917
1277961508616,16.3597
1277961568616,16.3781
1277961628616,16.3772
1277961688616,16.3229
1277961748616,16.3831
1277961808616,16.3593
1277961868616,16.3238
1277961928616,16.4047
1277961988616,16.3300
1277962048616,16.3559
1277962108616,16.3122
1277962168616,16.3239
1277962228616,16.3278
1277962288616,16.3631
1277962348616,16.4306
1277962408616,16.3573
1277962468616,16.3979
1277962528616,16.4222
1277962588616,16.3207
1277962648616,16.3857
1277962708616,16.3951
1277962768616,16.3636
1277962828616,16.3790
1277962888616,16.4145
1277962948616,16.3857
1277963008616,16.3721
1277963068616,16.3948
1277963128616,16.3481
1277963188616,16.3282
1277963248616,16.3463
1277963308616,16.3447
1277963368616,16.3178
1277963428616,16.3507
1277963488616,16.3931
1277963548616,16.3295
1277963608616,16.3334
1277963668616,16.3216
1277963728616,16.3357
1277963788616,16.2882
1277963848616,16.3283
1277963908616,16.3175
1277963968616,16.3496
1277964028624,16.3475
1277964088624,16.3445
1277964148624,16.3872
1277964208624,16.3296
1277964268624,16.3103
1277964328624,16.3239
1277964388624,16.2926
1277964448624,16.3840
1277964508624,16.3699
1277964568624,16.4140
1277964628624,16.3051
1277964688624,16.3322
1277964748624,16.3063
1277964808624,16.3821
1277964868624,16.3574
1277964928624,16.3613
1277964988624,16.3417
1277965048624,16.3249
1277965108624,16.3489
1277965168624,16.2908
1277965228624,16.3506
1277965288624,16.3431
1277965348624,16.3566
1277965408624,16.3563
1277965468624,16.3272
1277965528624,16.3973
1277965588624,16.3789
1277965648624,16.3087
1277965708624,16.3400
1277965768624,16.3494
1277965828624,16.3644
1277965888624,16.3878
1277965948624,16.3503
1277966008624,16.2815
1277966068624,16.3287
1277966128624,16.3226
1277966188624,16.3165
1277966248624,16.3195
1277966308624,16.2964
1277966368624,16.3507
1277966428624,16.2990
1277966488624,16.3100
1277966548624,16.3442
1277966608624,16.3609
1277966668624,16.3396
1277966728624,16.3492
1277966788624,16.3123
1277966848624,16.3480
1277966908624,16.2883
1277966968624,16.2617
1277967028624,16.3571
1277967088624,16.2364
1277967148624,16.3665
1277967208624,16.3139
1277967268624,16.3168
1277967328624,16.3437
1277967388624,16.3050
1277967448624,16.3798
1277967508624,16.3647
1277967568624,16.3086
1277967628633,16.3893
1277967688633,16.4960
1277968228633,16.3695
1277968288633,16.3845
1277968348633,16.3425
1277968408633,16.3133
1277968468633,16.2989
1277968528633,16.3178
1277968588633,16.3182
1277968648633,16.3115
1277968708633,16.2965
1277968768633,16.2982
1277968828633,16.3507
1277968888633,16.3360
1277968948633,16.3523
1277969008633,16.3489
1277969068633,16.3381
1277969128633,16.2843
1277969188633,16.3571
1277969248633,16.2600
1277969308633,16.3783
1277969368633,16.3253
1277969428633,16.3583
1277969488633,16.2827
1277969548633,16.3724
1277969608633,16.2984
1277969668633,16.3147
1277969728633,16.3414
1277969788633,16.3414
1277969848633,16.2809
1277969908633,16.3508
1277969968633,16.3344
1277970028633,16.3681
1277970088633,16.3532
1277970148633,16.3139
1277970208633,16.2553
1277970268633,16.3072
1277970328633,16.2872
1277970388633,16.3187
1277970448633,16.3103
1277970508633,16.3083
1277970568633,16.3660
1277970628633,16.2862
1277970688633,16.2903
1277970748633,16.2520
1277970808633,16.2543
1277970868633,16.3229
1277970928633,16.3078
1277970988633,16.3171
1277971048633,16.3307
1277971108633,16.2697
1277971168633,16.3549
1277971228641,16.3326
1277971288641,16.3169
1277971348641,16.3315
1277971408641,16.3133
1277971468641,16.3682
1277971528641,16.3870
1277971588641,16.4294
1277971648641,16.3236
1277971708641,16.2327
1277971768641,16.3131
1277971828641,16.3575
1277971888641,16.3948
1277971948641,16.3254
1277972008641,16.3297
1277972068641,16.3664
1277972128641,16.3099
1277972188641,16.3921
1277972248641,16.4116
1277972308641,16.3246
1277972368641,16.3801
1277972428641,16.3997
1277972488641,16.3918
1277972548641,16.3527
1277972608641,16.3542
1277972668641,16.3122
1277972728641,16.3863
1277972788641,16.3629
1277972848641,16.3216
1277972908641,16.3742
1277972968641,16.3697
1277973028641,16.3911
1277973088641,16.3353
1277973148641,16.3302
1277973208641,16.3929
1277973268641,16.3521
1277973328641,16.3369
1277973388641,16.3617
1277973448641,16.3554
1277973508641,16.3230
1277973568641,16.3293
1277973628641,16.3586
1277973688641,16.3285
1277973748641,16.4065
1277973808641,16.3446
1277973868641,16.3374
1277973928641,16.3280
1277973988641,16.3564
1277974048641,16.2956
1277974108641,16.3561
1277974168641,16.3226
1277974228641,16.2701
1277974288641,16.2885
1277974348641,16.3663
1277974408641,16.2956
1277974468641,16.3034
1277974528641,16.3178
1277974588641,16.3067
1277974648641,16.3399
1277974708641,16.3164
1277974768641,16.2107
1277974828650,16.2744
1277974888650,16.3495
1277974948650,16.3687
1277975008650,16.3252
1277975068650,16.2994
1277975128650,16.3171
1277975188650,16.3082
1277975248650,16.3232
1277975308650,16.3203
1277975368650,16.3430
1277975428650,16.4202
1277975488650,16.4047
1277975548650,16.4011
1277975608650,16.3673
1277975668650,16.3488
1277975728650,16.3368
1277975788650,16.3501
1277975848650,16.2892
1277975908650,16.3472
1277975968650,16.3220
1277976028650,16.3942
1277976088650,16.3582
1277976148650,16.3046
1277976208650,16.3186
1277976268650,16.3110
1277976328650,16.3582
1277976388650,16.2880
1277976448650,16.3789
1277976508650,16.3484
1277976568650,16.3623
1277976628650,16.2806
1277976688650,16.3204
1277976748650,16.3185
1277976808650,16.2361
1277976868650,16.3335
1277976928650,16.3253
1277976988650,16.2787
1277977048650,16.2926
1277977108650,16.3438
1277977168650,16.2504
1277977228650,16.3059
1277977288650,16.3234
1277977348650,16.2898
1277977408650,16.2851
1277977468650,16.3335
1277977528650,16.3294
1277977588650,16.3279
1277977648650,16.3005
1277977708650,16.3383
1277977768650,16.2814
1277977828650,16.3516
1277977888650,16.4266
1277977948650,16.3860
1277978008650,16.3770
1277978068650,16.3335
1277978128650,16.3484
1277978188650,16.3492
1277978248650,16.3591
1277978308650,16.4026
1277978368650,16.3486
1277978428658,16.3130
1277978488658,16.3531
1277978548658,16.3389
1277978608658,16.3529
1277978668658,16.3752
1277978728658,16.3086
1277978788658,16.2956
1277978848658,16.3542
1277978908658,16.3358
1277978968658,16.3433
1277979028658,16.2916
1277979088658,16.3043
1277979148658,16.3175
1277979208658,16.3177
1277979268658,16.2681
1277979328658,16.2465
1277979388658,16.3453
1277979448658,16.2796
1277979508658,16.3500
1277979568658,16.3226
1277979628658,16.3482
1277979688658,16.3434
1277979748658,16.3128
1277979808658,16.3747
1277979868658,16.3020
1277979928658,16.3234
1277979988658,16.2957
1277980048658,16.2530
1277980108658,16.2968
1277980168658,16.3280
1277980228658,16.2922
1277980288658,16.3020
1277980348658,16.2998
1277980408658,16.3154
1277980468658,16.2876
1277980528658,16.3614
1277980588658,16.3299
1277980648658,16.3393
1277980708658,16.3437
1277980768658,16.2958
1277980828658,16.3602
1277980888658,16.3921
1277980948658,16.4261
1277981008658,16.3391
1277981068658,16.3508
1277981128658,16.2766
1277981188658,16.3671
1277981248658,16.3500
1277981308658,16.3567
1277981368658,16.3715
1277981428658,16.3753
1277981488658,16.3426
1277981548658,16.3927
1277981608658,16.4183
1277981668658,16.4324
1277981728658,16.4220
1277981788658,16.4299
1277981848658,16.3438
1277981908658,16.3777
1277981968658,16.3522
1277982028666,16.3814
1277982088666,16.3735
1277982148666,16.4453
1277982208666,16.4050
1277982268666,16.3892
1277982328666,16.3770
1277982388666,16.4067
1277982448666,16.3681
1277982508666,16.3695
1277982568666,16.3515
1277982628666,16.3904
1277982688666,16.4355
1277982748666,16.4172
1277982808666,16.3977
1277982868666,16.4193
1277982928666,16.3385
1277982988666,16.3937
1277983048666,16.4294
1277983108666,16.4478
1277983168666,16.4048
1277983228666,16.3909
1277983288666,16.3505
1277983348666,16.3794
1277983408666,16.4186
1277983468666,16.3991
1277983528666,16.3750
1277983588666,16.3925
1277983648666,16.3026
1277983708666,16.4267
1277983768666,16.3381
1277983828666,16.3871
1277983888666,16.3651
1277983948666,16.3774
1277984008666,16.3868
1277984068666,16.3376
1277984128666,16.3621
1277984188666,16.4222
1277984248666,16.3565
1277984308666,16.3933
1277984368666,16.3878
1277984428666,16.4078
1277984488666,16.3814
1277984548666,16.3539
1277984608666,16.4013
1277984668666,16.4459
1277984728666,16.4044
1277984788666,16.3751
1277984848666,16.3426
1277984908666,16.3722
1277984968666,16.4449
1277985028666,16.4064
1277985088666,16.4176
1277985148666,16.4177
1277985208666,16.3322
1277985268666,16.3770
1277985328666,16.3757
1277985388666,16.3681
1277985448666,16.3624
1277985508666,16.4271
1277985568666,16.4365
1277985628674,16.4428
1277985688674,16.4685
1277985748674,16.4018
1277985808674,16.3716
1277985868674,16.4518
1277985928674,16.3967
1277985988674,16.3990
1277986048674,16.4545
1277986108674,16.3742
1277986168674,16.4453
1277986228674,16.3345
1277986288674,16.3848
1277986348674,16.4013
1277986408674,16.3680
1277986468674,16.3746
1277986528674,16.4018
1277986588674,16.3832
1277986648674,16.3613
1277986708674,16.4295
1277986768674,16.4119
1277986828674,16.3700
1277986888674,16.4121
1277986948674,16.4331
1277987008674,16.4404
1277987068674,16.4564
1277987128674,16.3579
1277987188674,16.3922
1277987248674,16.3546
1277987308674,16.4322
1277987368674,16.4258
1277987428674,16.4122
1277987488674,16.4142
1277987548674,16.4057
1277987608674,16.3681
1277987668674,16.3425
1277987728674,16.3993
1277987788674,16.3905
1277987848674,16.4145
1277987908674,16.4416
1277987968674,16.4559
1277988028674,16.4223
1277988088674,16.4423
1277988148674,16.4178
1277988208674,16.4107
1277988268674,16.4173
1277988328674,16.4804
1277988388674,16.4345
1277988448674,16.4465
1277988508674,16.4240
1277988568674,16.4042
1277988628674,16.4068
1277988688674,16.4051
1277988748674,16.4090
1277988808674,16.4573
1277988868674,16.4069
1277988928674,16.3898
1277988988674,16.3988
1277989048674,16.3926
1277989108674,16.3769
1277989168674,16.3973
1277989228683,16.4549
1277989288683,16.4142
1277989348683,16.4443
1277989408683,16.4322
1277989468683,16.3993
1277989528683,16.4502
1277989588683,16.3871
1277989648683,16.4178
1277989708683,16.4265
1277989768683,16.3757
1277989828683,16.4160
1277989888683,16.3890
1277989948683,16.4749
1277990008683,16.3988
1277990068683,16.3642
1277990128683,16.3517
1277990188683,16.4239
1277990248683,16.3707
1277990308683,16.4341
1277990368683,16.3918
1277990428683,16.4116
1277990488683,16.3880
1277990548683,16.3803
1277990608683,16.4149
1277990668683,16.3916
1277990728683,16.4300
1277990788683,16.3749
1277990848683,16.4376
1277990908683,16.4441
1277990968683,16.3797
1277991028683,16.3489
1277991088683,16.3685
1277991148683,16.4245
1277991208683,16.4248
1277991268683,16.4227
1277991328683,16.4286
1277991388683,16.3544
1277991448683,16.2768
1277991508683,16.4405
1277991568683,16.3567
1277991628683,16.3691
1277991688683,16.3789
1277991748683,16.4349
1277991808683,16.4324
1277991868683,16.4103
1277991928683,16.4113
1277991988683,16.4082
1277992048683,16.4629
1277992108683,16.3744
1277992168683,16.4105
1277992228683,16.4294
1277992288683,16.4267
1277992348683,16.4384
1277992408683,16.4576
1277992468683,16.4952
1277992528683,16.4821
1277992588683,16.4714
1277992648683,16.4320
1277992708683,16.4481
1277992768683,16.4420
1277992828691,16.4263
1277992888691,16.4708
1277992948691,16.5234
1277993008691,16.4783
1277993068691,16.4233
1277993128691,16.4089
1277993188691,16.4901
1277993248691,16.4800
1277993308691,16.4805
1277993368691,16.4725
1277993428691,16.3994
1277993488691,16.4147
1277993548691,16.3852
1277993608691,16.4749
1277993668691,16.4941
1277993728691,16.4292
1277993788691,16.4496
1277993848691,16.5037
1277993908691,16.4352
1277993968691,16.3469
1277994028691,16.4687
1277994088691,16.4651
1277994148691,16.3686
1277994208691,16.4355
1277994268691,16.4376
1277994328691,16.4234
1277994388691,16.4392
1277994448691,16.3658
1277994508691,16.4150
1277994568691,16.3742
1277994628691,16.3697
1277994688691,16.3941
1277994748691,16.3963
1277994808691,16.3847
1277994868691,16.3919
1277994928691,16.3761
1277994988691,16.4142
1277995048691,16.3845
1277995108691,16.4112
1277995168691,16.4200
1277995228691,16.3681
1277995288691,16.3879
1277995348691,16.4052
1277995408691,16.3655
1277995468691,16.4546
1277995528691,16.4380
1277995588691,16.4480
1277995648691,16.5203
1277995708691,16.3906
1277995768691,16.4078
1277995828691,16.4009
1277995888691,16.4402
1277995948691,16.4497
1277996008691,16.4345
1277996068691,16.4522
1277996128691,16.4039
1277996188691,16.4127
1277996248691,16.3850
1277996308691,16.4507
1277996368691,16.4003
1277996428700,16.4585
1277996488700,16.4000
1277996548700,16.4091
1277996608700,16.4337
1277996668700,16.3726
1277996728700,16.4969
1277996788700,16.4682
1277996848700,16.4347
1277996908700,16.4172
1277996968700,16.4588
1277997028700,16.4248
1277997088700,16.4333
1277997148700,16.4438
1277997208700,16.3845
1277997268700,16.4356
1277997328700,16.4247
1277997388700,16.4198
1277997448700,16.4537
1277997508700,16.3903
1277997568700,16.4008
1277997628700,16.4004
1277997688700,16.4329
1277997748700,16.4041
1277997808700,16.3717
1277997868700,16.3793
1277997928700,16.4256
1277997988700,16.4563
1277998048700,16.4804
1277998108700,16.4213
1277998168700,16.4432
1277998228700,16.4064
1277998288700,16.4036
1277998348700,16.4884
1277998408700,16.4589
1277998468700,16.4819
1277998528700,16.4935
1277998588700,16.4555
1277998648700,16.4414
1277998708700,16.4822
1277998768700,16.4845
1277998828700,16.4944
1277998888700,16.4618
1277998948700,16.4426
1277999008700,16.4764
1277999068700,16.4523
1277999128700,16.4676
1277999188700,16.4036
1277999248700,16.4769
1277999308700,16.4712
1277999368700,16.4247
1277999428700,16.4764
1277999488700,16.4230
1277999548700,16.4755
1277999608700,16.4461
1277999668700,16.4302
1277999728700,16.4134
1277999788700,16.4801
1277999848700,16.4273
1277999908700,16.4555
1277999968700,16.3655
1278000028708,16.4746
1278000088708,16.4394
1278000148708,16.4479
1278000208708,16.4471
1278000268708,16.4268
1278000328708,16.4540
1278000388708,16.4489
1278000448708,16.3636
1278000508708,16.4493
1278000568708,16.4533
1278000628708,16.4666
1278000688708,16.5623
1278000748708,16.5903
1278000808708,16.5030
1278000868708,16.4896
1278000928708,16.4964
1278000988708,16.5412
1278001048708,16.4103
1278001108708,16.5163
1278001168708,16.4702
1278001228708,16.3810
1278001288708,16.4657
1278001348708,16.4598
1278001408708,16.4539
1278001468708,16.4256
1278001528708,16.4520
1278001588708,16.4677
1278001648708,16.4975
1278001708708,16.4636
1278001768708,16.4274
1278001828708,16.4400
1278001888708,16.4572
1278001948708,16.4331
1278002008708,16.4425
1278002068708,16.5198
1278002128708,16.4538
1278002188708,16.4748
1278002248708,16.4881
1278002308708,16.4555
1278002368708,16.5278
1278002428708,16.4832
1278002488708,16.5170
1278002548708,16.4720
1278002608708,16.4715
1278002668708,16.5366
1278002728708,16.4861
1278002788708,16.5473
1278002848708,16.5320
1278002908708,16.4637
1278002968708,16.4897
1278003028708,16.4595
1278003088708,16.5457
1278003148708,16.5285
1278003208708,16.5603
1278003268708,16.4900
1278003328708,16.5108
1278003388708,16.5238
1278003448708,16.4992
1278003508708,16.5262
1278003568708,16.5287
1278003628718,16.4920
1278003688718,16.5524
1278003748718,16.4981
1278003808718,16.4677
1278003868718,16.4519
1278003928718,16.5265
1278003988718,16.4881
1278004048718,16.4668
1278004108718,16.4374
1278004168718,16.5370
1278004228718,16.4995
1278004288718,16.4859
1278004348718,16.5244
1278004408718,16.5244
1278004468718,16.5581
1278004528718,16.5406
1278004588718,16.5186
1278004648718,16.4794
1278004708718,16.5684
1278004768718,16.4368
1278004828718,16.5214
1278004888718,16.5422
1278004948718,16.5460
1278005008718,16.4923
1278005068718,16.5592
1278005128718,16.5192
1278005188718,16.4516
1278005248718,16.5282
1278005308718,16.5038
1278005368718,16.4678
1278005428718,16.5224
1278005488718,16.4921
1278005548718,16.4917
1278005608718,16.5083
1278005668718,16.5391
1278005728718,16.5576
1278005788718,16.4918
1278005848718,16.5234
1278005908718,16.4578
1278005968718,16.5630
1278006028718,16.5554
1278006088718,16.4832
1278006148718,16.6094
1278006208718,16.5297
1278006268718,16.4991
1278006328718,16.4776
1278006388718,16.5724
1278006448718,16.5409
1278006508718,16.5869
1278006568718,16.5372
1278006628718,16.5091
1278006688718,16.4773
1278006748718,16.4588
1278006808718,16.4892
1278006868718,16.5495
1278006928718,16.5379
1278006988718,16.6057
1278007048718,16.5673
1278007108718,16.5867
1278007168718,16.5617
1278007228727,16.4753
1278007288727,16.5407
1278007348727,16.5853
1278007408727,16.5055
1278007468727,16.4973
1278007528727,16.4687
1278007588727,16.5080
1278007648727,16.5556
1278007708727,16.5152
1278007768727,16.5390
1278007828727,16.5973
1278007888727,16.5512
1278007948727,16.5278
1278008008727,16.5474
1278008068727,16.5418
1278008128727,16.5543
1278008188727,16.5243
1278008248727,16.5207